Wind_Speed
35 38 40 44 49 50 52 52 51 53 55 56 57 60 57 55 53 52 53 53 51 50 48 45 44 42 41 40 39 38 37 36 35 35 34 34 34 34 33 32 33 33 33
32 35 37 41 45 48 48 51 51 52 53 54 55 58 58 55 54 52 53 52 51 52 49 48 46 45 44 43 42 41 39 39 37 37 37 36 35 35 34 34 34 33 33
27 32 34 36 40 42 44 46 49 50 51 51 52 55 57 55 53 53 52 52 51 51 49 48 47 47 46 45 44 43 42 41 40 39 39 38 37 36 35 35 34 34 34
23 27 30 34 36 37 39 41 43 45 48 51 51 52 53 54 53 52 52 52 51 49 49 49 49 49 47 46 46 45 44 44 42 41 40 39 39 38 37 36 35 35 36
18 22 26 30 32 34 36 39 40 41 45 48 49 51 52 53 53 53 52 52 52 50 49 51 50 50 49 48 48 47 45 45 44 42 41 41 41 40 39 38 37 37 37
15 17 22 27 28 29 33 37 38 40 43 45 47 49 51 52 52 52 52 52 53 52 51 51 51 51 50 50 50 49 47 46 45 44 44 44 43 42 41 39 39 39 39
11 13 16 21 25 27 29 32 35 37 39 41 44 46 48 48 49 51 52 52 52 52 51 52 52 51 50 50 50 51 49 49 48 46 46 46 45 45 43 41 41 41 41
8 10 12 16 19 23 27 28 30 32 34 37 39 43 43 44 45 46 48 51 51 52 51 52 51 52 52 51 51 51 51 51 50 49 48 47 47 46 45 44 44 43 41
6 8 10 12 15 18 21 24 27 29 32 33 35 38 40 42 42 44 46 49 51 51 51 52 52 52 52 51 50 49 50 51 51 50 50 48 47 47 46 45 45 44 42
3 6 9 11 13 15 19 22 23 24 26 28 31 35 39 41 41 43 44 47 49 49 50 50 50 51 50 50 49 49 49 50 49 48 47 46 46 47 46 46 46 46 45
2 5 7 9 12 14 16 19 20 22 23 25 27 31 36 39 41 43 45 45 45 46 47 48 48 49 49 49 48 48 48 48 48 48 47 46 46 47 46 46 47 47 47
3 5 6 8 10 12 14 16 18 20 21 23 25 28 30 34 37 38 40 42 42 42 43 45 45 46 47 47 47 47 48 49 49 48 47 47 47 47 47 47 48 48 47
2 3 5 6 7 9 11 14 15 18 19 19 21 23 26 29 32 34 37 38 40 41 42 42 44 45 46 46 46 47 47 48 49 49 48 48 48 48 48 49 48 48 47
5 5 5 5 6 7 8 10 12 14 17 18 20 21 23 25 28 32 34 36 38 39 40 42 44 46 47 46 46 46 47 48 48 48 49 49 49 49 49 49 49 49 47
7 7 6 7 8 8 9 11 12 14 15 17 20 21 22 23 26 29 31 35 36 38 39 41 44 46 46 46 46 47 47 48 49 49 48 49 49 48 48 48 47 48 47
8 8 7 8 8 9 11 12 12 14 17 19 20 21 22 23 24 26 27 30 33 36 38 39 42 44 45 45 45 46 46 47 48 48 48 47 47 47 47 46 46 47 46
9 9 8 9 9 10 11 13 14 15 17 19 20 21 22 24 26 28 29 31 32 34 36 39 41 42 43 44 45 45 46 45 46 47 47 46 46 46 46 46 47 47 46
11 11 11 11 12 13 14 15 17 18 20 22 23 24 24 26 28 30 31 33 34 35 35 37 39 41 42 43 44 45 45 44 44 45 45 45 45 45 46 45 45 46 45
14 14 15 15 16 16 17 18 20 21 23 24 25 26 28 29 30 31 32 33 35 36 36 38 40 42 43 45 45 45 45 45 45 44 45 46 46 46 46 45 44 44 44
15 17 18 18 19 19 19 20 21 23 24 25 26 28 29 30 31 32 32 34 35 37 37 38 39 41 43 44 45 46 46 46 45 45 45 45 46 46 46 46 45 45 45
17 18 18 19 20 21 21 22 23 25 25 26 26 27 28 29 30 31 32 34 35 36 37 39 40 40 42 43 44 45 45 45 45 45 45 45 46 45 45 46 46 46 45
19 20 20 20 22 23 23 24 25 26 26 26 26 27 28 30 31 32 34 35 35 34 35 37 38 40 41 42 43 44 45 46 46 46 46 45 44 44 45 46 46 45 45
21 22 23 24 24 25 26 26 26 26 26 26 27 28 29 29 31 32 34 35 36 36 36 36 38 40 41 41 43 42 43 45 45 45 45 44 43 44 45 45 44 44 44
22 24 25 26 27 27 27 28 28 27 27 26 26 26 28 30 31 32 32 33 35 35 35 36 38 39 40 41 41 41 42 43 44 44 44 44 44 43 42 42 42 42 42
24 26 27 29 29 30 30 30 29 29 29 28 28 28 29 30 31 32 33 34 34 35 35 35 37 38 39 39 39 39 41 42 42 42 43 43 43 43 43 43 42 41 41
26 28 29 30 31 31 31 31 31 31 30 30 30 30 31 31 32 33 34 34 35 35 35 36 36 37 38 39 39 40 40 41 41 41 42 43 43 42 42 42 41 41 40
Wind_Direction
231 228 228 228 226 225 222 221 221 221 221 223 225 226 227 228 229 229 229 230 232 233 233 233 236 238 241 243 245 246 248 250 251 253 256 258 261 263 265 267 271 272 274
233 229 228 226 226 224 223 223 223 223 223 225 226 227 227 229 229 229 230 230 232 233 233 234 237 238 240 243 244 246 248 250 251 254 256 258 261 263 265 268 270 271 274
238 237 234 231 229 227 226 224 224 225 226 226 226 227 227 226 227 229 230 231 232 233 234 235 236 238 240 243 245 247 249 251 252 255 258 259 261 264 265 267 269 271 273
240 239 238 236 232 231 228 224 224 227 229 230 230 229 229 228 228 229 230 231 231 232 234 235 236 238 240 243 245 247 249 250 252 255 257 260 261 263 264 266 268 270 272
237 237 238 235 234 235 234 229 229 228 229 229 230 230 230 230 231 231 232 233 231 232 234 235 236 239 240 243 246 247 248 251 253 255 257 259 262 263 264 266 267 269 272
234 235 238 234 233 235 235 234 233 232 231 231 232 232 232 232 233 233 233 233 232 233 236 238 238 240 241 243 245 247 248 250 252 254 257 260 261 262 263 265 267 268 271
230 236 242 240 239 238 237 235 233 232 232 231 232 232 231 232 233 234 234 233 233 236 237 239 240 242 242 243 245 246 248 250 252 255 258 260 260 261 261 264 266 268 271
230 236 241 243 244 245 242 239 238 236 235 233 233 231 231 233 233 234 235 234 235 236 238 239 241 242 243 244 246 248 248 250 252 254 257 259 258 259 261 263 266 267 269
236 240 247 248 247 249 246 244 241 240 238 235 235 234 233 234 236 237 238 238 237 238 239 240 240 241 242 243 246 248 250 252 253 255 257 259 259 260 261 263 264 266 267
257 257 256 256 259 256 252 249 243 241 240 238 238 238 237 238 240 240 239 238 237 237 237 238 239 240 240 243 245 248 252 253 254 256 258 258 258 261 262 263 264 265 266
275 280 266 263 263 257 254 254 249 245 242 241 240 241 243 242 242 242 242 241 239 238 238 238 239 240 241 244 246 248 250 252 254 255 258 259 260 262 262 264 264 265 266
268 273 267 269 270 265 261 260 256 249 246 246 246 245 244 243 243 244 244 242 240 240 242 243 242 242 244 245 247 249 251 253 255 257 258 261 262 262 262 262 264 264 264
342 319 295 284 279 275 269 266 259 251 248 248 249 248 247 245 244 242 241 242 243 244 246 247 247 246 247 248 250 251 252 254 255 257 258 259 261 262 262 262 263 263 263
3 350 335 321 299 285 283 281 270 259 253 251 252 251 251 249 246 242 240 243 244 246 248 248 249 248 248 248 250 250 252 254 255 256 257 259 261 262 262 263 262 262 263
350 345 339 331 318 300 296 293 280 268 262 261 260 257 257 253 246 242 241 243 246 246 247 247 248 248 248 249 249 251 253 253 254 255 257 259 259 260 260 261 261 262 262
350 341 335 333 325 310 298 292 284 270 265 264 265 262 257 252 246 244 244 245 246 245 247 248 249 248 248 248 249 250 252 253 253 254 256 257 257 257 258 258 260 260 259
346 341 333 327 322 312 300 294 290 279 270 268 265 262 259 253 249 248 249 248 249 248 250 251 251 249 249 249 249 250 252 253 254 255 255 256 257 257 257 259 259 259 257
340 336 328 322 315 309 305 299 294 288 282 276 270 266 261 256 252 252 253 252 253 252 253 251 250 250 251 251 250 251 252 253 254 255 255 256 257 258 258 259 258 257 256
334 331 325 321 315 308 303 300 297 294 288 281 276 271 265 259 256 257 257 256 254 253 254 253 253 253 253 253 252 251 251 252 254 255 256 256 257 258 257 256 256 256 255
335 332 328 324 319 313 308 303 300 295 290 285 280 276 269 263 258 258 258 257 257 256 256 256 256 255 254 253 253 251 252 253 254 254 254 254 254 255 255 255 255 256 256
333 333 329 325 320 316 312 308 303 298 293 288 283 279 273 266 261 259 259 259 260 259 258 259 259 258 255 254 254 253 254 254 254 254 253 254 254 254 254 253 253 255 256
329 328 326 324 319 316 312 309 306 302 297 291 287 282 277 271 266 263 261 261 262 260 258 259 259 258 256 254 254 255 255 256 255 254 254 255 253 253 253 253 254 256 256
325 326 325 322 319 316 313 310 308 306 303 297 291 285 281 275 269 265 266 263 263 262 260 259 257 255 254 253 254 255 255 255 254 254 254 254 254 253 252 253 255 255 256
321 321 320 319 318 316 315 315 312 310 307 302 297 290 283 278 275 272 271 269 265 264 264 261 259 257 255 254 255 254 253 253 254 254 255 255 253 253 253 253 253 253 254
320 319 317 317 317 317 315 315 313 312 310 306 302 297 290 284 280 277 276 274 272 269 267 266 264 260 257 257 256 256 255 254 254 254 254 254 254 254 252 252 252 253 255
318 318 317 316 316 316 316 314 313 312 309 306 303 299 293 288 284 281 278 276 274 273 270 269 268 263 259 256 256 256 256 255 255 255 254 254 254 253 253 253 253 253 254
Height
5660 5664 5668 5673 5678 5684 5691 5697 5705 5711 5717 5723 5730 5737 5745 5751 5757 5763 5769 5774 5779 5783 5788 5792 5796 5800 5804 5807 5809 5812 5814 5816 5817 5819 5820 5821 5822 5823 5823 5823 5823 5823 5822
5653 5657 5661 5665 5670 5677 5683 5690 5696 5701 5708 5715 5721 5728 5735 5742 5749 5754 5759 5764 5769 5774 5779 5783 5788 5792 5795 5798 5801 5803 5806 5808 5810 5811 5812 5813 5815 5815 5816 5816 5816 5816 5815
5647 5650 5654 5658 5663 5669 5675 5682 5688 5694 5700 5707 5712 5718 5725 5732 5738 5744 5750 5756 5761 5765 5770 5775 5778 5782 5786 5789 5792 5795 5797 5800 5802 5803 5804 5806 5807 5808 5808 5808 5808 5808 5808
5642 5645 5648 5652 5657 5663 5669 5674 5680 5686 5692 5698 5703 5710 5716 5723 5729 5735 5741 5746 5751 5756 5761 5765 5769 5773 5776 5780 5783 5786 5788 5790 5792 5794 5796 5797 5798 5799 5800 5801 5800 5800 5799
5639 5641 5644 5648 5652 5657 5662 5668 5673 5678 5683 5689 5694 5700 5707 5714 5719 5725 5731 5736 5741 5746 5751 5755 5759 5763 5766 5770 5773 5776 5778 5781 5783 5785 5786 5787 5789 5790 5790 5791 5792 5792 5791
5636 5638 5641 5645 5649 5652 5657 5661 5666 5670 5674 5679 5685 5691 5697 5703 5709 5715 5721 5726 5731 5736 5740 5745 5749 5752 5756 5760 5763 5766 5768 5771 5773 5775 5776 5778 5779 5780 5781 5782 5782 5782 5782
5634 5636 5638 5642 5645 5648 5651 5655 5659 5662 5667 5671 5677 5682 5688 5694 5699 5705 5710 5715 5720 5725 5730 5734 5738 5742 5746 5749 5752 5755 5758 5760 5762 5764 5765 5767 5769 5770 5771 5771 5772 5772 5773
5632 5634 5635 5638 5640 5643 5646 5648 5651 5655 5659 5663 5668 5673 5679 5684 5689 5694 5699 5704 5709 5714 5718 5723 5727 5731 5735 5738 5741 5743 5746 5748 5751 5752 5754 5755 5757 5758 5759 5760 5761 5761 5762
5630 5632 5633 5635 5636 5638 5640 5642 5645 5648 5651 5656 5661 5666 5671 5675 5680 5685 5689 5694 5698 5702 5706 5710 5715 5719 5723 5726 5729 5731 5734 5737 5739 5740 5742 5743 5745 5746 5747 5749 5749 5750 5750
5629 5630 5631 5631 5632 5634 5636 5637 5639 5642 5645 5649 5654 5659 5663 5667 5671 5675 5679 5683 5687 5691 5694 5699 5703 5707 5711 5714 5717 5719 5722 5724 5726 5728 5730 5732 5733 5734 5735 5737 5738 5739 5739
5628 5628 5628 5629 5629 5630 5632 5633 5635 5637 5640 5643 5647 5651 5654 5658 5661 5665 5669 5672 5676 5680 5684 5687 5691 5695 5699 5702 5704 5707 5709 5712 5714 5716 5717 5720 5721 5722 5723 5724 5725 5726 5727
5627 5626 5626 5626 5626 5626 5627 5628 5629 5632 5635 5638 5641 5644 5646 5649 5652 5655 5658 5662 5666 5669 5673 5676 5680 5683 5686 5689 5692 5694 5696 5699 5701 5703 5705 5706 5708 5709 5711 5711 5712 5713 5714
5626 5625 5624 5623 5623 5623 5623 5623 5624 5626 5629 5631 5634 5636 5638 5640 5643 5646 5650 5653 5656 5660 5663 5666 5669 5672 5674 5677 5679 5681 5683 5685 5688 5690 5692 5693 5695 5696 5697 5698 5699 5700 5701
5625 5624 5622 5621 5621 5620 5620 5620 5620 5621 5623 5625 5627 5629 5630 5632 5635 5637 5640 5643 5646 5649 5652 5654 5657 5659 5661 5663 5666 5668 5670 5673 5675 5677 5679 5680 5682 5683 5684 5685 5686 5687 5689
5623 5622 5620 5619 5619 5618 5617 5617 5617 5617 5618 5619 5620 5621 5622 5624 5626 5628 5631 5634 5636 5638 5640 5642 5644 5647 5649 5651 5653 5655 5658 5660 5662 5664 5665 5667 5668 5669 5671 5672 5674 5675 5676
5621 5620 5618 5617 5616 5615 5614 5613 5612 5612 5612 5613 5613 5613 5614 5616 5617 5619 5621 5624 5626 5627 5628 5630 5632 5634 5636 5638 5640 5643 5645 5647 5649 5651 5653 5654 5655 5656 5658 5660 5661 5662 5664
5620 5618 5616 5615 5614 5612 5611 5609 5608 5607 5606 5606 5605 5605 5606 5607 5609 5611 5612 5614 5616 5617 5618 5619 5620 5622 5624 5626 5628 5630 5633 5635 5636 5638 5640 5641 5642 5644 5645 5646 5647 5649 5650
5618 5616 5613 5612 5610 5608 5606 5604 5602 5601 5599 5598 5597 5597 5597 5598 5599 5601 5602 5604 5605 5606 5607 5608 5609 5611 5613 5614 5616 5618 5620 5622 5624 5625 5627 5629 5630 5631 5633 5634 5634 5636 5638
5615 5612 5610 5608 5605 5603 5600 5598 5595 5593 5591 5589 5588 5587 5587 5588 5589 5590 5591 5593 5594 5595 5596 5597 5598 5599 5601 5602 5604 5605 5607 5609 5611 5613 5615 5616 5618 5619 5620 5621 5623 5625 5627
5612 5608 5605 5602 5600 5597 5594 5591 5588 5585 5583 5581 5579 5578 5577 5577 5579 5580 5581 5582 5583 5584 5585 5585 5586 5587 5588 5590 5591 5593 5595 5597 5599 5601 5602 5604 5605 5606 5607 5609 5611 5613 5615
5608 5605 5602 5598 5595 5591 5588 5585 5581 5578 5575 5572 5570 5568 5567 5568 5568 5569 5570 5571 5572 5573 5573 5574 5574 5575 5576 5577 5579 5580 5582 5585 5587 5588 5590 5591 5592 5593 5595 5597 5599 5601 5603
5605 5602 5598 5594 5590 5587 5583 5579 5574 5570 5567 5564 5561 5559 5558 5558 5558 5559 5559 5560 5561 5561 5561 5561 5561 5562 5563 5565 5566 5568 5570 5572 5574 5575 5577 5579 5580 5581 5583 5584 5586 5589 5591
5602 5598 5594 5589 5585 5581 5576 5572 5568 5563 5559 5556 5553 5551 5550 5549 5548 5549 5549 5549 5549 5548 5548 5549 5549 5549 5551 5552 5553 5555 5556 5558 5560 5562 5564 5566 5567 5569 5570 5572 5574 5576 5579
5597 5593 5589 5584 5580 5575 5570 5565 5561 5556 5552 5549 5546 5543 5541 5540 5539 5539 5538 5537 5537 5536 5536 5536 5536 5537 5538 5539 5540 5542 5543 5545 5546 5548 5550 5552 5554 5556 5558 5560 5562 5564 5567
5593 5588 5584 5579 5574 5569 5564 5559 5554 5550 5545 5542 5538 5535 5532 5530 5528 5527 5527 5526 5525 5524 5525 5524 5524 5525 5526 5527 5528 5529 5531 5532 5533 5535 5537 5539 5541 5543 5545 5548 5550 5552 5555
5586 5582 5577 5572 5567 5562 5557 5552 5547 5543 5538 5534 5531 5527 5524 5521 5519 5517 5516 5514 5513 5512 5512 5512 5513 5513 5513 5514 5515 5517 5518 5519 5521 5523 5525 5527 5529 5531 5534 5536 5538 5541 5543